TimePDT,TemperatureF,Dew PointF,Humidity,Sea Level PressureIn,VisibilityMPH,Wind Direction,Wind SpeedMPH,Gust SpeedMPH,PrecipitationIn,Events,Conditions,WindDirDegrees,DateUTC
12:56 AM,59.0,50.0,72,30.04,10.0,SSE,3.5,-,N/A,,Overcast,160,2013-03-28 07:56:00
1:56 AM,57.9,51.1,78,30.04,10.0,SE,4.6,-,0.00,,Overcast,130,2013-03-28 08:56:00
2:56 AM,57.9,51.1,78,30.04,10.0,Calm,Calm,-,N/A,,Overcast,0,2013-03-28 09:56:00
3:29 AM,59.0,51.8,77,30.02,10.0,SSE,3.5,-,N/A,,Overcast,160,2013-03-28 10:29:00
3:39 AM,57.2,51.8,82,30.02,10.0,SE,5.8,-,N/A,,Overcast,140,2013-03-28 10:39:00
3:56 AM,57.9,51.1,78,30.03,10.0,SSE,5.8,-,N/A,,Overcast,150,2013-03-28 10:56:00
4:56 AM,57.9,52.0,81,30.04,10.0,SW,3.5,-,N/A,,Overcast,220,2013-03-28 11:56:00
5:56 AM,57.0,53.1,87,30.04,10.0,Calm,Calm,-,N/A,,Overcast,0,2013-03-28 12:56:00
6:56 AM,57.0,53.1,87,30.05,10.0,Calm,Calm,-,N/A,,Overcast,0,2013-03-28 13:56:00
7:56 AM,57.9,53.1,84,30.06,10.0,North,3.5,-,N/A,,Overcast,10,2013-03-28 14:56:00
8:56 AM,60.1,53.1,78,30.08,10.0,Calm,Calm,-,N/A,,Mostly Cloudy,0,2013-03-28 15:56:00
9:29 AM,62.6,53.6,72,30.08,10.0,North,6.9,-,N/A,,Mostly Cloudy,350,2013-03-28 16:29:00
9:56 AM,60.1,54.0,80,30.08,10.0,NNW,8.1,-,N/A,,Overcast,340,2013-03-28 16:56:00
10:56 AM,64.9,51.1,61,30.08,10.0,South,8.1,-,N/A,,Overcast,170,2013-03-28 17:56:00
11:56 AM,64.9,50.0,58,30.08,10.0,Calm,Calm,-,N/A,,Overcast,0,2013-03-28 18:56:00
12:03 PM,66.2,50.0,56,30.07,10.0,NE,3.5,-,N/A,,Scattered Clouds,40,2013-03-28 19:03:00
12:56 PM,68.0,53.1,59,30.08,10.0,North,9.2,-,N/A,,Partly Cloudy,360,2013-03-28 19:56:00
1:56 PM,69.1,52.0,54,30.07,10.0,North,8.1,-,N/A,,Mostly Cloudy,360,2013-03-28 20:56:00
2:56 PM,69.1,53.1,57,30.05,10.0,NNW,10.4,-,N/A,,Partly Cloudy,340,2013-03-28 21:56:00
3:56 PM,68.0,54.0,61,30.04,10.0,NW,12.7,-,N/A,,Clear,320,2013-03-28 22:56:00
4:56 PM,66.9,54.0,63,30.04,10.0,NNW,10.4,-,N/A,,Clear,330,2013-03-28 23:56:00
5:56 PM,64.0,53.1,67,30.04,10.0,NNW,10.4,-,N/A,,Clear,330,2013-03-29 00:56:00
6:56 PM,63.0,54.0,72,30.06,10.0,NNW,10.4,-,N/A,,Clear,330,2013-03-29 01:56:00
7:56 PM,60.1,53.1,78,30.08,10.0,NNW,5.8,-,N/A,,Clear,340,2013-03-29 02:56:00
8:56 PM,60.1,53.1,78,30.09,10.0,NNW,4.6,-,N/A,,Overcast,340,2013-03-29 03:56:00
9:56 PM,57.9,52.0,81,30.10,10.0,North,5.8,-,N/A,,Partly Cloudy,350,2013-03-29 04:56:00
10:56 PM,57.0,53.1,87,30.11,10.0,North,6.9,-,N/A,,Clear,360,2013-03-29 05:56:00
11:56 PM,57.0,53.1,87,30.11,10.0,West,3.5,-,N/A,,Clear,270,2013-03-29 06:56:00